Temperature
13 13 14 14 14 15 15 15 14 14 14 14 14 13 13 13 13 13 13 13 13 13 13 13 13 13 14 14 14 14 14 14 14 13 13 13 13 12 13 13 13 13 14
11 12 12 12 13 13 14 14 14 14 14 13 13 13 12 12 12 13 13 12 12 12 13 13 13 13 13 14 14 14 14 14 13 13 12 12 12 12 12 12 12 12 12
10 10 11 11 11 12 12 13 13 13 14 13 13 13 12 12 12 12 12 12 12 12 12 12 12 13 13 13 13 13 13 13 13 13 12 11 11 11 12 12 11 11 11
9 10 10 10 10 11 11 12 12 13 13 13 13 12 12 12 12 12 12 12 12 12 12 12 12 12 12 12 13 13 13 12 12 12 11 11 11 11 12 12 12 11 11
8 8 8 8 9 10 10 11 11 12 12 12 12 12 12 12 12 12 12 12 12 12 12 12 12 12 12 12 12 12 12 11 11 11 11 11 12 12 12 13 12 12 11
8 8 8 8 8 8 9 10 10 11 12 12 12 12 12 12 12 12 12 11 11 11 12 12 12 12 12 12 12 11 11 11 11 12 12 12 12 12 13 13 13 13 12
8 8 8 8 8 8 9 9 9 10 11 11 11 12 12 12 12 12 12 11 11 11 11 11 12 12 12 12 11 11 11 11 11 12 12 12 12 12 12 13 12 13 12
9 9 9 9 9 9 9 9 9 9 10 10 11 11 11 11 12 12 12 11 11 11 11 11 11 11 11 11 11 11 11 11 11 12 12 11 11 11 11 11 11 11 11
9 9 9 9 9 9 9 9 9 9 9 10 10 10 11 11 11 12 12 11 11 11 11 11 11 11 11 11 11 11 11 11 11 11 12 11 11 11 11 11 11 12 12
9 9 9 9 9 8 8 8 8 8 8 9 9 10 10 10 11 11 11 11 11 11 11 11 11 11 11 11 11 11 11 11 11 11 11 10 10 10 10 11 11 12 12
8 8 8 8 8 8 8 8 8 8 8 8 8 9 9 9 10 11 11 11 12 11 11 11 11 11 11 11 11 11 11 11 10 10 10 10 9 9 10 10 10 11 12
7 7 7 7 7 8 8 8 7 8 8 8 8 8 9 9 9 10 11 11 11 11 12 11 11 11 11 11 11 11 11 10 10 10 10 10 10 9 9 9 9 9 9
6 6 6 6 6 7 7 7 7 7 8 9 9 8 8 8 8 10 10 11 11 11 11 11 11 10 10 10 10 10 10 10 10 10 10 9 9 8 8 8 8 8 8
5 5 5 5 6 6 6 7 8 8 8 9 9 8 8 8 8 9 10 10 10 10 11 11 10 10 10 9 9 9 9 10 10 10 9 9 8 8 8 9 9 9 8
5 5 5 5 5 5 6 6 7 8 8 8 8 7 7 8 8 9 9 9 9 10 10 10 9 9 9 9 9 9 9 9 9 9 9 8 9 9 9 9 9 9 9
4 4 4 4 4 5 5 6 7 7 7 7 7 7 7 7 8 8 9 9 10 10 10 10 10 10 10 10 9 9 9 9 9 9 9 9 9 9 9 9 9 10 9
4 4 4 4 4 4 5 6 7 7 7 7 7 7 7 7 7 8 8 9 10 10 10 11 11 10 10 10 10 10 9 9 9 9 9 9 9 9 9 9 9 9 9
3 3 3 4 4 4 5 6 7 7 6 6 6 6 6 7 7 7 8 8 9 9 11 11 11 11 11 11 10 10 10 9 9 9 9 9 9 9 9 9 9 9 9
3 3 3 3 4 4 5 6 7 7 7 6 6 6 6 6 7 7 8 8 8 9 11 11 11 11 11 11 11 10 10 9 9 9 9 9 9 9 10 10 9 8 9
3 3 3 3 4 4 5 6 7 6 6 6 5 5 6 6 6 7 7 8 9 10 11 11 11 11 11 11 10 10 10 9 9 9 9 9 9 10 9 9 9 9 9
3 3 3 4 4 5 6 6 6 6 5 5 5 5 6 6 7 7 7 8 10 10 11 11 11 11 11 10 10 10 10 10 10 10 10 9 10 10 10 10 9 9 9
3 4 4 4 5 6 6 6 6 5 5 5 5 5 6 7 8 8 9 9 10 11 11 11 11 11 11 11 11 10 10 10 10 10 10 10 10 10 10 10 10 9 9
4 4 4 5 5 5 6 5 5 5 5 5 5 6 7 8 9 9 9 10 11 11 11 11 11 11 11 11 11 10 11 11 10 10 10 10 10 10 10 10 10 9 9
4 5 5 5 6 6 5 5 5 5 5 6 6 7 8 9 9 10 10 11 11 12 11 11 11 11 11 11 11 10 11 11 11 10 10 10 10 10 10 10 10 10 10
5 5 6 6 6 6 6 6 6 6 6 7 7 8 9 9 10 10 10 11 11 11 11 11 11 11 11 10 10 11 11 10 10 10 10 10 10 10 10 10 10 10 10
6 6 6 6 6 6 6 7 7 7 7 8 8 9 10 10 10 11 11 11 11 11 11 11 11 11 10 10 10 10 10 10 10 10 10 10 10 10 10 10 10 10 10
Wind_Speed
14 14 13 11 10 9 9 11 11 11 10 10 10 11 11 11 11 11 12 12 11 10 9 9 10 10 9 9 9 9 9 8 6 5 6 7 8 8 7 7 8 10 12
14 14 14 13 13 12 11 12 12 13 13 12 11 11 11 10 10 10 10 10 9 8 8 7 8 7 7 7 7 8 7 8 10 12 8 6 7 8 8 8 8 11 12
14 14 14 14 14 13 13 14 14 14 14 14 13 12 11 9 9 9 8 7 7 6 5 5 5 4 2 1 3 4 5 8 11 13 10 7 7 9 9 10 11 10 12
13 13 12 12 12 12 13 14 14 15 15 16 15 13 11 10 9 7 6 5 4 4 4 4 4 4 4 5 6 8 9 11 11 11 10 9 8 10 10 11 10 9 10
10 11 12 12 12 12 12 13 14 15 16 16 16 14 12 10 8 7 5 3 2 1 3 3 5 7 9 8 8 9 9 9 8 8 9 9 9 10 10 10 11 10 9
12 13 13 13 14 13 13 13 14 14 14 15 16 15 14 11 7 4 7 4 2 1 3 4 6 8 12 13 13 11 8 7 6 6 7 10 10 9 8 9 10 9 8
16 16 15 14 14 14 14 14 13 13 13 14 15 16 15 12 12 10 8 5 4 3 3 3 6 9 10 11 13 12 10 7 2 4 10 10 9 8 7 7 5 6 7
18 17 17 17 16 15 14 14 12 12 12 12 13 14 15 13 15 13 10 8 6 5 5 6 7 9 9 11 12 11 9 8 6 7 9 9 9 7 5 7 8 8 7
21 20 19 18 17 16 16 15 13 12 11 11 11 12 14 13 16 15 13 10 8 7 6 6 7 9 8 9 11 11 11 9 13 16 15 13 12 9 4 5 7 8 8
22 21 20 18 18 17 17 16 15 13 13 11 10 9 11 12 15 17 16 11 10 9 7 6 5 8 8 5 11 12 11 10 11 12 11 10 9 6 2 1 4 6 8
21 21 21 19 17 18 17 16 15 15 14 13 12 8 7 9 11 18 18 12 11 11 10 8 7 10 8 3 6 10 12 12 11 11 9 8 7 6 5 5 5 3 4
21 21 20 19 18 17 17 16 15 15 15 14 12 9 5 5 7 13 18 15 8 10 9 9 9 12 10 7 7 12 12 11 10 9 8 7 7 7 7 9 10 11 10
21 21 20 20 18 17 16 16 15 14 14 13 11 8 5 4 5 9 15 11 6 7 9 14 15 15 14 11 13 11 9 8 8 8 7 7 8 8 8 8 9 8 8
21 19 17 17 16 16 15 15 15 14 13 12 10 8 6 6 6 7 10 10 9 10 13 15 14 11 10 12 11 8 7 6 7 7 8 8 8 8 7 7 7 7 8
21 18 16 15 15 14 15 14 15 14 10 9 8 6 7 9 10 10 11 13 13 13 15 13 12 12 12 11 10 8 7 7 7 8 8 8 8 7 7 6 5 6 6
18 17 14 12 12 13 14 14 15 14 8 8 6 5 5 6 11 11 12 12 16 20 16 14 13 13 12 12 11 10 9 9 8 8 8 8 8 8 7 7 6 6 6
17 15 12 11 12 12 14 14 12 12 11 12 11 10 8 7 10 13 14 12 17 20 15 14 13 12 12 11 11 10 9 9 8 8 8 8 8 8 7 7 6 6 6
15 14 13 11 12 12 14 14 12 11 11 10 10 12 12 11 12 15 17 14 11 14 14 14 13 13 12 12 11 10 10 10 9 8 9 8 8 8 7 7 6 6 5
12 9 9 10 11 12 13 13 11 10 8 7 7 9 12 12 13 17 19 14 16 17 14 13 14 13 13 12 11 10 11 10 10 9 9 8 8 7 7 6 6 5 2
8 9 10 9 10 11 12 11 10 8 7 7 7 8 9 10 11 14 15 15 16 17 15 13 13 13 13 12 11 11 11 11 11 9 9 8 7 7 7 6 7 7 5
5 6 9 9 9 9 9 9 7 6 5 6 7 9 14 15 18 20 19 17 17 17 15 13 13 14 14 13 12 12 13 11 11 10 9 9 8 7 6 6 6 6 5
3 4 5 7 7 6 5 5 4 4 6 8 8 10 17 18 19 20 20 18 17 16 15 14 13 13 14 14 13 13 13 12 12 11 10 9 8 7 7 7 6 6 6
2 3 3 4 4 3 3 3 3 5 7 8 9 12 16 18 19 20 20 18 16 15 15 14 13 13 14 13 13 12 13 13 12 12 11 10 9 8 7 7 7 6 6
1 2 2 2 2 3 4 5 5 6 7 8 11 16 17 17 18 20 19 17 15 15 14 14 14 15 16 14 12 12 12 12 13 13 14 11 11 10 9 8 8 9 9
1 1 2 2 3 4 5 5 5 5 6 10 15 17 17 16 17 17 17 15 15 14 15 14 12 13 17 17 14 12 11 9 7 10 13 13 13 12 11 10 10 10 10
1 1 1 2 2 3 2 1 3 5 8 12 15 15 16 15 16 16 15 14 13 12 12 11 12 13 15 15 15 11 11 12 10 8 10 12 14 13 13 12 13 13 13
Wind_Direction
2 359 355 347 330 306 283 275 270 268 267 266 271 281 288 293 297 297 296 297 295 293 288 282 277 269 257 247 238 229 221 212 177 122 114 121 123 124 122 122 113 94 85
345 343 343 342 339 331 316 298 282 269 262 259 261 269 278 284 291 295 300 304 304 304 304 303 297 284 262 248 233 222 209 192 159 137 131 135 137 134 133 130 113 100 97
332 329 330 329 330 330 325 315 298 279 266 259 253 256 263 271 280 288 295 303 309 319 330 331 328 317 287 223 179 159 147 140 136 135 139 142 145 144 139 122 111 113 108
320 318 315 313 315 316 317 315 307 292 273 258 249 247 249 253 263 272 281 295 312 332 353 2 13 27 60 89 96 103 111 116 122 130 136 144 149 158 147 135 127 122 120
294 295 294 296 298 300 303 304 304 295 279 263 248 239 236 237 242 247 255 259 284 348 29 37 53 66 72 85 97 100 104 109 118 132 143 150 157 165 154 139 126 124 121
268 272 275 281 287 291 294 297 298 297 288 272 253 237 228 226 171 201 257 224 205 130 83 79 94 94 93 93 94 91 96 120 139 152 155 148 148 148 137 141 145 141 129
272 270 265 263 268 274 282 289 296 302 298 283 263 244 230 210 170 195 230 235 193 149 117 109 104 109 117 117 108 100 85 66 96 134 126 126 126 125 140 144 131 128 114
278 277 273 270 270 269 271 276 284 292 296 294 279 258 238 209 181 193 202 220 193 161 135 123 121 125 125 132 132 121 101 63 58 97 106 106 105 100 100 108 117 119 122
278 277 276 272 271 270 269 272 277 282 286 289 287 277 251 218 185 188 195 204 190 176 153 138 137 131 126 136 134 127 114 93 70 74 75 79 66 51 35 158 166 172 149
280 278 275 272 268 266 266 267 270 275 276 279 281 281 270 239 193 185 195 203 185 175 158 142 114 129 142 163 153 145 134 126 120 110 102 108 103 97 32 296 205 185 152
282 279 274 270 266 263 263 262 262 264 269 273 275 270 271 266 205 187 193 206 185 181 172 165 134 126 132 130 168 152 141 139 135 133 130 128 124 119 115 85 34 63 136
281 276 271 266 263 262 259 257 256 258 261 264 264 258 241 258 241 199 195 218 217 182 170 150 129 129 122 116 119 122 137 152 148 148 145 140 132 117 97 84 68 62 60
280 275 270 264 258 255 257 256 252 247 252 259 259 248 219 203 223 198 192 206 223 183 141 116 127 131 126 113 119 135 162 162 154 153 144 133 120 114 114 107 97 97 94
276 273 269 263 256 252 250 250 248 245 243 249 254 244 211 191 197 188 187 184 158 137 125 123 131 140 127 119 142 165 175 157 157 145 134 131 133 146 151 147 150 153 133
276 270 264 259 254 255 254 250 249 244 243 248 258 243 211 195 195 191 183 179 175 156 145 147 151 151 150 154 160 159 152 150 150 141 142 148 151 149 141 132 134 134 126
275 269 261 251 249 249 250 246 225 229 192 193 229 248 233 204 175 181 185 178 161 152 159 162 162 163 161 160 160 158 159 156 152 152 154 155 152 149 146 147 148 132 123
273 267 257 247 242 241 243 241 227 201 194 199 201 203 217 199 177 172 167 158 155 161 176 170 168 167 165 164 162 161 158 152 155 158 153 150 149 151 152 151 145 136 127
274 263 252 243 238 237 237 232 223 205 193 206 209 208 206 201 183 165 148 143 163 186 192 175 173 170 169 168 165 160 153 155 166 162 153 151 154 155 154 158 155 148 139
276 257 244 237 234 233 230 224 215 208 203 205 206 200 200 191 169 158 155 173 181 195 201 180 176 174 173 171 166 160 157 162 167 166 158 160 162 161 158 159 138 111 175
273 253 241 235 232 226 219 211 202 197 205 214 215 210 187 176 173 169 180 189 192 195 199 184 179 177 175 173 169 167 164 164 168 176 165 168 171 168 159 162 155 167 178
274 245 228 230 229 220 208 199 192 196 213 219 220 206 188 188 182 179 184 191 195 194 195 187 180 179 178 177 177 178 177 173 177 181 173 175 178 177 174 169 167 176 169
265 248 225 221 217 208 197 186 191 214 227 228 226 197 188 186 179 179 184 190 193 193 192 188 183 182 183 183 183 184 188 185 184 187 185 183 185 188 187 182 180 180 182
247 232 226 221 211 178 201 220 232 241 235 230 194 175 178 178 174 176 181 187 191 190 186 185 187 185 184 183 186 191 196 192 189 191 195 194 194 198 199 197 199 204 210
222 212 212 217 227 233 244 252 248 234 220 192 171 168 171 169 169 173 180 186 188 184 181 183 189 185 181 182 188 195 201 200 195 195 201 208 206 206 208 210 218 223 227
174 185 204 222 241 250 254 256 238 204 180 165 159 163 166 165 168 173 181 183 181 178 178 181 186 184 183 189 195 202 180 169 201 210 196 211 219 218 222 225 230 236 240
347 303 269 258 255 254 248 216 144 140 147 152 156 163 165 166 167 170 172 171 171 172 176 182 188 189 189 195 203 193 155 163 188 231 230 214 219 225 228 234 241 243 248
Height
1492 1489 1487 1484 1483 1481 1480 1480 1479 1478 1476 1474 1472 1469 1467 1463 1460 1456 1452 1448 1444 1441 1438 1436 1434 1433 1432 1432 1433 1434 1437 1440 1444 1446 1450 1454 1457 1459 1462 1464 1465 1465 1466
1489 1486 1483 1481 1478 1475 1474 1473 1473 1471 1470 1469 1467 1465 1463 1460 1456 1453 1449 1445 1441 1438 1435 1433 1431 1429 1427 1428 1429 1430 1433 1436 1440 1443 1448 1452 1456 1459 1462 1464 1466 1467 1467
1484 1481 1478 1475 1473 1470 1467 1466 1465 1464 1463 1463 1462 1460 1458 1456 1453 1450 1446 1442 1439 1436 1433 1431 1429 1427 1425 1425 1426 1428 1430 1433 1437 1442 1447 1452 1456 1459 1463 1466 1467 1469 1470
1476 1474 1471 1469 1466 1463 1460 1458 1457 1456 1456 1455 1455 1454 1453 1451 1450 1447 1444 1441 1438 1435 1433 1431 1429 1426 1425 1425 1425 1427 1430 1433 1437 1442 1447 1452 1456 1460 1464 1466 1469 1471 1473
1467 1465 1463 1462 1459 1456 1454 1452 1450 1449 1448 1447 1447 1447 1447 1446 1446 1444 1442 1440 1437 1435 1433 1432 1431 1429 1427 1427 1428 1429 1432 1435 1440 1445 1449 1453 1457 1461 1465 1468 1470 1472 1474
1461 1458 1456 1455 1453 1451 1450 1448 1446 1443 1441 1440 1439 1440 1440 1441 1440 1440 1439 1439 1437 1436 1435 1434 1433 1432 1431 1431 1432 1434 1437 1441 1445 1448 1452 1455 1459 1462 1465 1468 1470 1473 1475
1456 1453 1451 1449 1448 1446 1444 1442 1440 1438 1434 1432 1432 1432 1433 1434 1435 1436 1436 1436 1437 1436 1435 1435 1435 1434 1435 1436 1437 1440 1443 1446 1450 1452 1454 1457 1460 1463 1466 1468 1470 1472 1474
1448 1446 1444 1443 1441 1440 1438 1437 1434 1432 1429 1426 1425 1425 1426 1428 1429 1431 1433 1434 1436 1436 1436 1436 1436 1437 1438 1440 1442 1444 1447 1450 1453 1455 1457 1460 1462 1463 1466 1468 1469 1471 1473
1439 1437 1436 1434 1433 1432 1431 1430 1429 1426 1423 1421 1419 1418 1419 1421 1424 1427 1429 1432 1434 1435 1436 1437 1438 1439 1441 1443 1445 1447 1449 1452 1454 1457 1459 1461 1462 1464 1467 1469 1471 1472 1474
1430 1428 1426 1425 1424 1423 1423 1422 1421 1420 1418 1415 1413 1411 1411 1414 1418 1422 1425 1429 1432 1434 1435 1436 1438 1440 1442 1444 1447 1448 1450 1453 1455 1458 1460 1462 1464 1465 1466 1468 1471 1472 1473
1419 1417 1416 1415 1414 1414 1414 1413 1413 1412 1411 1409 1407 1405 1404 1406 1410 1416 1421 1425 1429 1431 1433 1436 1437 1439 1442 1444 1447 1449 1451 1453 1456 1459 1461 1463 1464 1466 1467 1468 1469 1470 1472
1408 1406 1405 1404 1404 1404 1404 1404 1404 1404 1403 1403 1401 1399 1398 1399 1402 1409 1416 1422 1426 1429 1431 1434 1435 1438 1441 1444 1447 1449 1452 1455 1458 1460 1462 1464 1465 1466 1467 1467 1468 1468 1470
1396 1394 1393 1393 1393 1393 1394 1394 1395 1396 1396 1396 1395 1394 1393 1393 1397 1403 1411 1418 1423 1427 1429 1431 1434 1438 1441 1444 1447 1450 1453 1456 1458 1460 1462 1464 1465 1466 1467 1468 1469 1470 1471
1383 1382 1381 1381 1381 1383 1384 1385 1386 1387 1388 1388 1389 1388 1387 1389 1392 1398 1406 1413 1419 1424 1427 1430 1434 1437 1441 1443 1447 1450 1453 1455 1457 1459 1461 1463 1465 1467 1469 1470 1472 1473 1474
1371 1370 1369 1370 1371 1372 1374 1375 1377 1379 1381 1382 1383 1383 1384 1385 1389 1394 1402 1410 1416 1422 1425 1429 1433 1437 1440 1444 1447 1450 1452 1454 1456 1459 1461 1463 1465 1468 1470 1471 1472 1473 1474
1358 1357 1358 1359 1360 1362 1364 1366 1368 1371 1374 1376 1378 1379 1380 1383 1386 1392 1400 1408 1414 1419 1424 1429 1432 1436 1440 1443 1446 1449 1451 1454 1456 1459 1461 1463 1466 1468 1470 1472 1473 1474 1474
1347 1346 1347 1348 1350 1352 1355 1358 1360 1363 1366 1369 1372 1374 1376 1379 1384 1390 1397 1405 1412 1418 1423 1428 1431 1435 1439 1442 1445 1448 1451 1453 1456 1459 1461 1463 1466 1468 1470 1471 1473 1474 1475
1336 1336 1337 1338 1341 1343 1346 1350 1354 1357 1360 1362 1365 1368 1372 1376 1382 1388 1395 1403 1410 1416 1421 1425 1429 1433 1438 1441 1445 1447 1450 1453 1456 1459 1461 1463 1466 1468 1470 1471 1472 1474 1475
1327 1327 1328 1330 1333 1336 1339 1344 1347 1351 1354 1357 1359 1362 1367 1372 1378 1385 1392 1399 1407 1413 1419 1423 1428 1432 1436 1440 1444 1447 1449 1452 1455 1458 1461 1463 1465 1467 1469 1471 1471 1472 1474
1321 1322 1323 1325 1327 1331 1335 1339 1342 1345 1348 1350 1353 1357 1361 1366 1372 1379 1388 1396 1405 1411 1416 1421 1425 1430 1434 1438 1442 1446 1449 1452 1455 1458 1460 1463 1465 1467 1468 1470 1471 1472 1473
1318 1318 1319 1322 1324 1328 1331 1335 1338 1340 1341 1344 1346 1350 1355 1361 1369 1376 1385 1394 1402 1408 1414 1418 1423 1428 1432 1436 1440 1444 1448 1451 1454 1457 1459 1462 1464 1466 1467 1469 1470 1471 1472
1317 1317 1319 1321 1324 1327 1329 1331 1333 1334 1335 1337 1339 1343 1350 1358 1367 1376 1384 1392 1399 1406 1411 1416 1421 1425 1429 1433 1437 1441 1445 1449 1452 1455 1458 1460 1462 1464 1466 1468 1469 1470 1471
1317 1318 1319 1321 1323 1325 1327 1328 1329 1329 1330 1331 1334 1339 1347 1357 1366 1375 1383 1391 1398 1403 1408 1413 1418 1422 1426 1430 1434 1438 1442 1446 1449 1452 1456 1458 1460 1463 1464 1466 1467 1468 1469
1319 1320 1321 1322 1323 1324 1324 1324 1324 1324 1325 1328 1333 1340 1349 1358 1366 1375 1383 1390 1396 1401 1406 1411 1416 1420 1424 1428 1432 1436 1440 1443 1447 1450 1453 1456 1458 1460 1462 1464 1465 1466 1467
1321 1322 1322 1322 1322 1322 1321 1321 1321 1321 1324 1329 1336 1344 1352 1360 1368 1375 1382 1389 1394 1399 1404 1409 1414 1418 1421 1425 1429 1433 1436 1440 1443 1447 1450 1453 1455 1457 1459 1460 1461 1462 1463
1324 1324 1324 1323 1322 1322 1321 1321 1322 1324 1328 1333 1340 1348 1355 1362 1369 1376 1382 1387 1392 1397 1402 1407 1411 1416 1419 1423 1427 1430 1433 1436 1440 1443 1446 1449 1451 1453 1455 1456 1457 1458 1458